Temp_Advection
nan nan nan nan nan nan nan nan nan nan nan nan nan nan nan nan nan nan nan nan nan nan nan nan nan nan nan nan nan nan nan nan nan nan nan nan nan nan
nan -1 -0 -0 -0 -0 -0 0 0 -0 -1 -1 -1 -0 -0 -0 -1 -0 0 -0 -0 0 0 1 1 0 1 0 -0 1 0 -0 0 1 1 0 1 nan
nan -0 -0 0 -0 -0 -0 -0 0 0 -0 -1 -1 -1 -0 -0 -1 -1 0 1 0 0 0 0 0 1 1 0 -0 -0 1 1 0 1 0 0 1 nan
nan -0 -0 -0 -0 -0 -0 -0 -0 -0 -0 -0 -1 -1 -0 -0 -0 0 0 -0 -0 0 1 0 0 0 0 1 1 0 -0 -0 0 1 0 1 1 nan
nan -0 -0 -0 -0 -0 -0 -0 -0 -0 0 -0 -0 -0 -0 0 -0 -0 0 1 1 -0 -0 0 0 0 0 0 0 -0 -0 0 0 0 1 1 0 nan
nan 0 -0 -0 -0 -0 -0 -0 -0 0 -0 -0 0 0 -0 0 0 -0 -0 -0 -0 0 0 0 0 0 0 0 -0 -0 0 0 0 1 0 0 0 nan
nan 1 0 -0 -0 -0 -0 -0 0 0 0 -0 0 -0 -0 -0 -1 -0 0 -0 -0 0 -0 0 0 -0 -1 -0 -0 -0 0 1 1 0 0 1 1 nan
nan -0 -0 -0 -0 -0 0 0 -0 0 0 0 0 -0 -0 -0 -0 0 0 -0 -1 -0 0 -0 -1 0 0 -0 -0 -0 0 1 1 1 1 1 1 nan
nan -0 -0 -0 -0 0 0 0 0 0 0 0 -0 -0 -0 -0 -0 -0 -0 0 -0 -0 1 1 -1 -0 0 0 0 0 1 1 1 0 0 0 1 nan
nan -1 -0 -0 -0 -0 0 0 0 -0 -0 0 -0 -1 -0 1 0 -1 -0 0 0 0 1 1 1 1 1 1 1 1 1 1 0 0 1 1 1 nan
nan -0 -0 -0 -0 0 0 0 0 -0 -0 -0 -0 1 1 0 -0 -0 -0 0 1 1 1 1 1 1 1 0 1 0 0 0 0 1 1 0 0 nan
nan 0 -0 -0 -0 -0 -0 0 0 0 0 -0 0 0 -0 -0 -0 0 1 1 2 1 1 0 1 0 0 0 1 0 0 0 0 1 1 0 0 nan
nan -0 -0 -0 -0 -0 -0 -0 -0 -0 0 0 0 0 1 1 1 0 0 0 0 0 -0 -0 0 0 -0 0 0 0 0 0 0 0 0 0 0 nan
nan -0 0 0 0 0 0 0 0 0 0 0 0 0 0 0 0 0 0 0 0 0 0 0 0 0 0 0 -0 0 0 0 0 0 0 0 0 nan
nan 0 0 0 0 0 0 0 0 0 0 0 0 0 0 0 0 0 0 0 0 0 0 0 0 0 0 0 -0 -0 -0 -0 0 0 0 0 0 nan
nan 0 0 0 0 0 0 0 0 0 0 0 0 0 -0 0 0 0 0 0 0 0 0 0 0 0 0 0 0 0 0 0 0 -0 0 0 0 nan
nan 0 0 0 0 0 0 0 0 0 0 0 0 0 0 0 0 0 0 0 0 0 0 0 0 0 0 0 0 0 0 0 -0 -0 -0 -0 -0 nan
nan 0 0 0 0 0 0 0 0 0 0 0 0 0 0 0 0 0 0 0 -0 -0 0 -0 -0 -0 0 0 0 0 0 -0 0 0 -1 -2 -2 nan
nan 0 0 0 0 0 0 0 0 0 0 0 0 0 0 0 0 0 0 0 0 -0 -0 -0 -0 -0 -0 0 0 0 -0 -0 -0 -0 0 0 -1 nan
nan 0 0 0 0 0 0 0 0 0 0 0 0 0 0 0 -0 -0 -0 -0 -0 -0 -0 -0 -0 -0 -0 -0 -0 0 0 -0 -0 -0 -0 0 -0 nan
nan 0 0 0 0 0 0 0 0 0 0 0 0 0 0 0 0 -0 -0 -0 -0 -0 -0 -0 -0 -0 -0 -0 -0 -0 0 0 0 -0 -0 -0 -1 nan
nan 0 0 0 0 0 0 0 0 0 0 0 0 0 0 0 0 0 -0 -0 -0 -0 -0 -0 -0 -0 -0 -0 -0 -1 -0 0 0 0 0 0 0 nan
nan nan nan nan nan nan nan nan nan nan nan nan nan nan nan nan nan nan nan nan nan nan nan nan nan nan nan nan nan nan nan nan nan nan nan nan nan nan
Wind_Speed
34 36 39 40 41 41 41 40 39 38 38 37 40 38 36 37 37 38 35 37 39 40 35 36 37 40 47 46 38 37 44 42 39 35 34 33 29 27
34 37 40 40 39 40 39 39 38 42 43 36 35 34 34 35 34 33 33 32 33 33 30 32 34 37 40 49 50 47 46 42 41 40 38 36 33 31
31 33 36 36 37 37 36 36 37 37 43 40 38 37 38 37 36 35 30 27 30 33 34 31 33 31 34 38 39 37 38 41 43 43 41 39 38 36
29 31 36 34 36 37 38 38 37 36 39 40 38 39 40 40 35 34 36 35 38 37 34 36 37 36 34 34 37 39 40 40 39 38 39 39 41 39
32 33 33 33 33 33 34 34 33 33 35 39 39 36 38 39 37 35 33 31 32 36 37 36 38 37 36 35 36 38 40 39 42 43 45 46 42 40
30 36 37 33 31 32 32 32 30 30 31 35 38 33 34 32 30 31 32 32 31 29 29 30 38 37 39 37 39 39 38 39 42 44 41 43 43 34
25 29 33 32 30 31 30 29 27 28 30 35 31 29 21 25 26 26 30 34 33 26 28 33 29 30 34 36 37 39 41 40 37 35 40 36 36 36
23 19 19 22 24 27 26 25 25 24 24 28 27 24 24 25 25 26 26 27 28 27 28 33 31 33 33 35 37 37 35 33 41 33 44 43 36 26
18 16 17 20 22 20 23 25 26 27 25 25 26 27 28 27 24 24 25 25 28 32 33 31 31 33 32 31 30 27 21 23 26 29 27 24 25 23
17 13 14 16 19 21 22 26 28 28 28 27 27 28 32 34 30 29 26 25 32 32 32 29 26 24 24 21 20 18 19 21 22 21 20 19 16 15
14 9 5 6 11 16 20 21 24 26 29 30 34 37 34 25 23 30 33 30 29 25 21 20 18 18 15 13 12 12 10 9 11 13 12 12 13 15
5 6 9 12 12 11 6 4 10 10 10 12 14 18 20 19 16 14 22 24 26 14 15 14 19 18 7 12 10 10 7 6 8 11 13 15 17 18
8 6 4 5 8 10 12 8 7 8 9 9 11 13 14 14 13 9 7 8 11 8 14 13 20 16 9 12 11 9 9 8 9 8 8 9 11 13
10 8 6 4 3 4 6 8 9 7 7 6 6 6 8 8 11 10 10 8 6 6 10 8 12 13 9 9 9 10 11 11 11 12 12 14 15 17
9 7 5 3 3 4 5 6 6 7 6 5 4 3 3 4 3 4 4 3 2 2 4 8 8 10 11 10 10 10 11 12 13 14 14 15 16 16
9 7 6 5 5 4 4 4 4 4 4 4 5 5 6 6 5 5 4 5 5 6 4 4 4 5 6 6 7 8 8 6 7 8 10 13 15 17
9 8 7 6 6 6 6 6 6 5 5 5 5 5 5 5 5 5 4 3 3 3 1 1 2 2 3 4 5 7 8 10 10 11 13 15 16 16
11 10 9 8 7 6 6 5 5 4 4 3 3 4 4 3 3 3 2 2 2 2 0 2 3 4 4 3 4 5 6 8 8 10 11 16 18 17
13 12 10 9 7 6 5 5 5 5 5 4 4 4 3 2 2 1 1 1 0 1 2 3 4 4 4 3 7 8 9 10 13 17 17 16 19 21
15 13 11 10 8 7 6 5 4 4 4 3 2 1 1 1 1 1 1 2 1 1 1 2 2 4 4 5 6 5 10 12 13 16 17 16 19 20
15 13 12 10 8 7 6 5 4 4 3 3 2 1 0 1 1 2 2 1 1 2 1 1 2 4 5 6 8 11 8 7 10 15 18 20 20 22
15 13 12 9 8 7 6 5 5 4 3 2 2 2 2 2 2 1 0 1 2 2 3 3 3 4 5 7 8 10 11 8 7 10 12 13 15 16
15 13 12 11 9 9 8 6 5 5 4 4 3 2 2 1 1 2 2 2 3 4 4 5 5 6 6 7 9 11 12 14 15 16 12 11 14 18
Wind_Direction
259 258 260 260 260 261 263 265 261 263 257 257 255 258 249 248 247 256 260 262 253 254 252 256 254 255 250 247 244 248 253 258 253 253 257 255 252 248
262 262 262 263 263 265 267 268 265 259 263 255 253 256 253 251 255 261 255 260 251 249 246 254 257 258 254 247 247 253 257 250 250 250 248 249 247 241
266 264 264 266 265 265 268 270 270 265 261 262 256 254 252 257 255 260 251 260 254 252 245 249 253 262 258 251 251 251 250 250 249 249 248 249 247 246
269 268 263 267 267 267 269 269 269 270 267 261 257 254 251 251 255 251 256 261 256 250 254 257 257 261 261 257 251 253 256 257 253 250 251 249 247 247
269 269 271 270 270 270 270 269 270 270 266 263 258 254 254 252 252 253 257 256 259 264 261 256 255 261 254 258 257 256 259 258 259 252 250 246 242 251
271 260 264 263 268 271 270 270 267 268 263 260 249 255 252 244 246 251 255 255 257 260 261 261 258 255 251 259 254 258 256 261 259 257 240 243 244 242
298 268 255 258 264 266 265 265 264 265 263 267 267 273 268 261 250 257 257 258 260 262 258 266 266 268 262 260 258 260 262 259 255 249 226 237 247 244
309 284 268 259 264 262 256 257 261 261 266 266 265 258 264 266 274 269 266 255 253 260 268 265 271 270 269 266 266 263 261 259 251 241 236 233 226 232
315 289 268 263 266 257 255 249 247 254 265 266 261 253 262 269 271 269 260 261 269 270 268 265 272 267 262 263 262 258 247 239 225 209 205 217 227 229
338 303 279 271 266 261 255 253 252 256 258 258 257 260 262 274 267 261 265 263 273 263 258 251 251 241 234 237 229 219 210 208 209 211 215 220 222 223
7 353 352 322 281 265 258 250 248 252 259 260 261 265 263 265 269 259 261 243 251 242 230 237 224 213 200 201 203 197 196 188 203 210 213 219 222 231
349 18 33 48 52 51 25 265 238 243 259 267 261 251 251 260 253 248 242 244 234 202 199 195 190 185 173 175 177 187 188 205 218 218 218 223 231 237
274 288 327 27 39 63 71 80 99 112 121 131 132 125 123 126 126 131 153 179 184 173 163 167 176 180 169 171 174 187 198 198 207 211 212 223 232 242
274 280 269 237 182 136 135 130 132 143 142 147 148 134 117 110 125 134 139 150 153 144 154 172 184 201 210 183 179 196 203 214 223 236 241 246 248 251
264 248 238 215 192 187 201 207 213 217 214 203 193 170 138 130 125 134 140 137 181 167 185 194 201 205 207 198 202 208 219 240 246 248 250 250 255 255
242 229 211 197 180 185 190 181 177 164 152 153 144 142 137 131 144 134 133 140 150 148 166 191 189 208 221 227 238 248 254 243 249 262 264 263 263 268
228 214 210 200 191 179 170 162 157 157 158 147 141 142 152 148 144 142 142 142 153 129 151 216 234 250 261 263 271 265 267 274 275 276 272 271 271 273
218 215 212 208 202 190 182 177 172 171 169 167 169 165 163 144 123 123 107 106 99 111 266 302 299 291 276 270 269 262 276 290 295 292 298 301 298 294
220 221 217 216 215 209 203 194 191 182 170 160 162 157 144 138 141 161 190 226 233 312 321 307 304 304 302 256 262 281 290 302 294 293 293 292 291 295
218 222 219 217 218 218 206 195 190 180 170 176 189 216 258 277 307 2 24 17 13 6 326 309 317 304 308 301 290 272 280 294 295 298 300 292 288 292
214 217 218 218 217 214 209 205 199 204 215 225 224 196 224 111 107 88 80 87 87 99 106 357 310 320 327 318 310 318 328 312 309 309 310 307 313 314
211 212 216 219 219 216 218 220 221 229 236 234 219 178 176 172 166 138 69 348 347 338 334 327 314 304 306 307 310 314 313 313 312 307 301 299 307 304
207 206 208 212 215 217 221 222 224 224 220 215 202 211 221 236 281 307 311 309 305 303 303 304 309 309 312 311 312 317 317 321 325 320 310 303 298 296
Height
1428 1430 1430 1431 1432 1432 1434 1435 1435 1430 1426 1427 1431 1432 1435 1437 1440 1443 1444 1446 1447 1450 1451 1452 1454 1455 1458 1459 1462 1465 1466 1469 1471 1473 1476 1477 1479 1481
1421 1421 1420 1421 1421 1423 1424 1425 1425 1424 1417 1422 1424 1425 1427 1429 1432 1433 1435 1436 1439 1440 1443 1445 1446 1447 1448 1450 1453 1455 1458 1459 1462 1463 1465 1468 1470 1472
1412 1411 1411 1412 1412 1413 1414 1415 1415 1416 1410 1412 1414 1418 1419 1420 1423 1425 1427 1428 1430 1432 1434 1437 1439 1440 1442 1442 1444 1445 1446 1448 1450 1454 1454 1457 1460 1463
1404 1403 1402 1404 1403 1404 1405 1405 1406 1406 1404 1402 1404 1406 1408 1410 1412 1415 1417 1419 1420 1424 1427 1429 1430 1432 1434 1434 1435 1437 1439 1440 1442 1445 1446 1448 1451 1452
1396 1395 1394 1395 1395 1395 1396 1396 1396 1396 1395 1394 1394 1396 1399 1400 1403 1406 1408 1410 1412 1415 1416 1419 1422 1423 1425 1426 1426 1427 1429 1430 1431 1432 1434 1437 1440 1444
1386 1386 1385 1385 1386 1387 1387 1387 1388 1388 1388 1386 1385 1387 1390 1391 1394 1396 1398 1400 1402 1404 1407 1409 1410 1411 1414 1414 1416 1416 1418 1419 1420 1421 1423 1427 1431 1435
1376 1374 1375 1376 1379 1378 1379 1379 1381 1381 1380 1380 1378 1380 1380 1383 1385 1389 1391 1393 1394 1396 1399 1401 1401 1402 1404 1405 1405 1405 1407 1408 1410 1411 1413 1418 1423 1427
1369 1367 1367 1368 1370 1370 1371 1373 1374 1374 1374 1373 1373 1373 1376 1378 1379 1382 1384 1386 1387 1388 1391 1393 1394 1393 1394 1395 1396 1396 1396 1397 1400 1402 1405 1408 1414 1418
1365 1363 1362 1362 1363 1362 1364 1365 1367 1368 1368 1368 1367 1369 1371 1372 1375 1376 1377 1379 1380 1383 1383 1384 1385 1386 1385 1386 1387 1386 1386 1388 1391 1394 1398 1402 1408 1412
1363 1359 1357 1357 1357 1356 1358 1359 1359 1361 1361 1362 1362 1363 1364 1366 1367 1369 1371 1373 1374 1374 1375 1375 1377 1379 1380 1379 1382 1383 1384 1387 1388 1391 1394 1398 1403 1407
1362 1358 1354 1353 1352 1351 1352 1352 1353 1353 1353 1354 1355 1355 1356 1357 1359 1361 1362 1363 1366 1365 1366 1369 1372 1375 1377 1378 1380 1380 1382 1383 1385 1388 1391 1396 1400 1404
1363 1359 1357 1354 1352 1350 1349 1348 1347 1348 1348 1348 1348 1348 1348 1350 1351 1352 1353 1357 1359 1360 1362 1366 1368 1374 1377 1374 1379 1381 1382 1383 1386 1389 1392 1394 1396 1398
1362 1360 1357 1355 1354 1352 1350 1350 1349 1349 1350 1350 1350 1350 1348 1347 1348 1350 1352 1355 1356 1357 1360 1363 1366 1368 1373 1373 1376 1377 1380 1382 1386 1390 1390 1392 1392 1394
1361 1358 1356 1355 1354 1354 1353 1352 1352 1353 1353 1353 1353 1352 1352 1351 1351 1353 1354 1355 1356 1358 1360 1362 1367 1369 1371 1372 1378 1379 1379 1381 1385 1386 1388 1389 1389 1390
1357 1357 1355 1353 1352 1352 1352 1352 1353 1353 1353 1353 1353 1353 1353 1354 1355 1355 1355 1355 1355 1358 1362 1364 1366 1368 1371 1371 1373 1376 1378 1380 1381 1382 1383 1384 1385 1385
1354 1354 1353 1353 1351 1351 1351 1351 1351 1352 1353 1353 1353 1354 1355 1355 1355 1356 1356 1356 1357 1359 1362 1364 1366 1368 1368 1369 1372 1374 1376 1378 1377 1378 1379 1380 1380 1380
1352 1351 1352 1351 1351 1350 1350 1351 1351 1352 1353 1353 1353 1354 1356 1356 1355 1356 1357 1358 1358 1359 1361 1363 1364 1365 1366 1368 1370 1371 1372 1372 1372 1373 1374 1374 1374 1373
1349 1349 1350 1350 1351 1350 1350 1351 1351 1352 1353 1354 1354 1356 1357 1356 1356 1357 1357 1357 1358 1358 1360 1361 1362 1363 1364 1367 1368 1368 1368 1368 1368 1369 1369 1368 1368 1368
1345 1347 1347 1349 1350 1350 1350 1351 1351 1351 1352 1353 1354 1354 1355 1355 1356 1356 1356 1356 1356 1357 1358 1359 1360 1361 1362 1364 1366 1365 1365 1366 1366 1365 1365 1364 1363 1363
1341 1344 1345 1346 1347 1348 1349 1349 1350 1351 1351 1352 1352 1353 1353 1354 1354 1355 1356 1356 1356 1357 1357 1358 1360 1360 1361 1363 1363 1365 1363 1362 1360 1359 1358 1358 1357 1356
1336 1340 1342 1344 1345 1346 1347 1348 1349 1350 1350 1351 1351 1352 1352 1352 1352 1353 1354 1355 1356 1356 1356 1357 1358 1358 1359 1359 1359 1359 1359 1358 1357 1355 1353 1351 1350 1348
1333 1336 1339 1341 1343 1344 1345 1346 1347 1348 1348 1349 1350 1350 1351 1351 1352 1352 1353 1354 1356 1356 1356 1357 1357 1357 1357 1357 1356 1356 1355 1355 1354 1353 1352 1350 1348 1345
1330 1333 1336 1338 1340 1342 1343 1344 1345 1346 1347 1347 1348 1349 1350 1350 1351 1351 1352 1353 1354 1356 1356 1356 1355 1355 1354 1354 1353 1352 1351 1350 1348 1345 1346 1345 1343 1341